Theta_e
315 317 317 323 327 326 326 324 323 324 323 322 321 321 320 321 321 324 321 321 322 326 324 329 331 332 333 333 332 332 331 331 331 331 330 329 326 324 324 334 333 334 326 322 323 320 320 319 319
314 316 322 323 325 325 322 323 323 322 322 321 321 321 321 322 322 323 324 321 321 320 318 327 329 330 331 331 330 329 329 329 328 328 327 327 326 326 325 329 333 330 322 323 323 320 320 321 320
314 316 322 324 323 323 322 322 322 322 322 321 322 322 321 322 322 324 323 320 321 320 317 322 326 329 330 330 330 330 328 327 327 326 327 327 326 325 322 321 325 323 319 321 321 319 318 316 314
321 321 321 320 323 321 321 320 320 321 321 320 321 319 321 320 319 319 319 318 321 320 320 321 324 327 328 330 330 329 328 327 327 326 328 328 320 317 317 318 318 320 318 318 317 315 313 312 312
320 321 321 323 322 320 320 320 320 321 322 321 320 321 321 320 318 317 317 317 319 321 320 319 321 326 327 328 328 328 327 326 326 330 334 326 316 313 314 316 315 313 313 313 313 312 309 306 305
321 319 321 322 321 320 320 321 321 321 322 320 320 320 321 320 318 317 317 317 317 320 321 320 319 320 325 325 324 325 323 325 327 330 332 327 315 312 312 313 312 311 311 310 308 305 304 304 304
321 322 322 321 320 320 320 320 320 320 319 320 320 319 319 320 318 317 317 317 317 321 320 321 320 318 318 320 321 320 320 324 324 329 330 324 316 312 311 311 310 309 308 306 304 304 304 304 304
320 320 320 321 320 320 319 319 319 319 318 319 318 317 320 320 319 317 317 317 317 319 320 320 319 319 317 316 315 317 318 321 322 330 328 324 317 312 310 309 308 306 305 305 304 304 304 305 305
319 319 320 321 321 320 319 318 319 318 318 318 318 318 318 318 318 317 317 316 316 318 319 319 320 319 318 318 316 314 315 322 328 331 330 327 321 313 310 308 306 305 305 305 305 305 305 305 306
319 321 321 320 318 318 319 318 318 318 318 318 318 318 319 318 318 318 317 316 316 317 317 318 318 319 319 319 318 316 314 319 327 327 327 325 320 314 310 308 305 305 305 305 304 305 305 306 306
321 320 320 319 319 319 318 317 318 318 316 318 318 317 317 318 318 318 318 317 318 319 320 318 318 318 320 321 322 319 317 317 318 322 322 318 315 313 310 308 305 305 306 305 305 305 306 306 306
319 319 319 319 319 319 318 318 318 318 318 317 317 317 317 317 317 317 317 317 317 318 319 320 319 318 319 321 324 324 321 318 315 315 319 317 315 313 311 309 305 305 305 305 305 305 306 306 306
317 318 319 318 318 318 318 318 317 317 317 317 317 317 317 316 316 317 316 316 317 316 317 319 319 319 319 320 320 323 321 320 318 315 315 315 315 314 311 309 306 304 305 305 306 305 305 305 306
317 317 316 316 316 316 316 316 317 316 316 316 316 316 316 316 316 316 316 316 316 315 315 316 319 318 318 317 318 318 319 320 319 318 317 315 315 315 313 310 307 304 305 305 306 305 305 305 305
316 315 314 315 316 315 317 314 314 316 316 316 317 316 315 316 315 315 315 315 315 315 315 315 317 317 317 317 317 319 319 320 321 320 319 318 317 316 314 311 308 305 304 305 305 305 304 305 305
315 314 315 316 317 315 315 314 314 316 316 315 315 315 315 315 315 315 315 315 315 314 315 314 315 318 319 318 317 318 321 322 322 322 322 320 318 317 315 312 309 307 304 304 304 304 304 304 304
314 314 315 316 317 315 314 315 315 315 315 315 315 315 315 315 314 313 314 314 314 314 314 314 314 314 316 318 319 320 320 322 323 324 323 322 320 318 316 314 311 308 306 304 303 303 303 303 303
316 316 316 316 316 315 314 313 313 316 316 316 316 316 315 312 310 311 312 312 311 312 313 313 312 314 313 313 316 319 321 321 322 323 322 322 320 319 317 315 312 309 307 304 303 303 302 302 302
315 314 314 315 315 314 315 315 314 315 315 315 315 315 315 309 309 310 309 308 309 310 310 311 312 311 312 313 314 317 320 321 321 321 321 320 319 318 317 315 313 311 309 307 304 302 301 301 301
314 314 314 314 315 314 313 314 314 313 314 314 314 312 310 308 307 306 306 306 306 306 306 307 308 310 310 310 313 315 316 317 318 318 318 318 317 316 316 315 313 310 308 306 304 303 301 300 300
314 315 314 314 313 313 312 312 313 314 315 311 310 308 307 306 305 305 305 305 306 306 306 306 306 307 307 308 310 311 313 315 316 315 315 315 315 315 314 314 313 311 310 308 305 303 301 300 300
314 314 313 313 312 312 310 311 313 313 312 309 308 307 306 305 304 304 304 305 305 305 305 305 306 306 306 306 307 307 308 309 308 308 308 307 309 311 312 311 311 311 310 309 307 304 302 300 299
314 312 312 311 311 311 312 312 314 314 310 309 308 306 305 304 303 303 303 303 303 303 304 303 304 304 303 305 305 305 305 305 306 306 306 306 305 304 305 306 307 308 308 308 307 306 302 300 299
311 310 310 310 311 314 315 315 316 313 310 308 308 306 305 304 303 302 302 302 302 302 302 303 303 303 304 303 302 302 302 302 303 304 304 304 303 303 302 302 303 304 305 306 306 306 304 303 300
310 310 315 318 314 317 316 317 317 317 310 308 307 306 304 303 303 302 302 302 303 304 304 304 304 303 303 301 302 301 301 301 302 301 301 301 301 301 301 301 301 301 301 302 303 303 304 304 302
312 316 317 319 319 318 314 316 318 311 308 308 306 305 303 302 301 300 300 300 300 301 301 302 302 302 301 301 301 300 300 300 300 300 301 300 300 300 300 300 300 300 300 300 300 300 300 301 302
316 318 317 319 312 316 315 314 313 309 308 307 305 303 301 300 300 299 299 298 297 296 296 296 296 296 296 298 299 299 299 298 299 299 299 299 299 299 299 298 298 298 298 298 298 298 298 298 299
313 311 316 315 313 308 312 312 313 312 310 306 303 301 300 298 297 297 297 297 295 293 292 291 290 290 290 290 291 292 294 294 295 296 297 296 296 297 298 299 298 299 298 297 297 297 297 297 297
309 310 310 312 312 313 313 311 311 310 310 306 302 301 299 297 296 295 294 295 295 292 290 289 289 289 288 288 288 288 288 289 290 292 292 293 293 293 293 294 297 298 298 297 296 296 296 296 296
310 311 312 316 313 312 313 314 309 305 303 303 302 301 298 297 295 293 292 291 292 290 289 288 288 288 288 287 287 287 287 287 287 287 288 288 289 289 289 290 290 290 293 297 297 295 295 295 295
Wind_Speed
8 6 7 7 2 3 3 5 1 8 5 4 4 4 5 7 4 0 3 2 5 11 13 20 20 19 18 17 16 15 13 12 10 9 7 8 7 6 4 3 4 4 3 1 2 3 2 1 1
4 3 5 5 2 2 3 2 8 5 4 4 3 4 5 2 4 1 0 1 8 8 11 18 20 19 19 18 17 15 14 12 11 11 10 10 9 10 9 7 7 7 8 4 3 3 3 2 1
1 2 5 2 3 4 3 4 5 3 3 2 3 3 2 3 3 2 5 2 8 10 11 16 19 20 20 19 18 17 15 14 13 12 11 11 12 13 12 11 10 10 8 5 6 6 5 6 5
3 3 5 1 5 4 5 6 10 8 4 2 3 7 3 5 3 4 5 4 7 11 16 16 19 21 21 21 20 18 17 16 15 14 13 12 12 11 10 10 10 10 9 7 8 7 7 6 6
5 5 3 3 7 2 2 8 2 4 5 3 2 4 8 4 5 5 6 6 6 11 16 16 17 21 22 22 21 20 19 18 17 15 15 14 10 9 10 10 10 10 8 8 8 7 7 5 4
5 2 3 5 6 5 4 6 4 6 3 3 2 8 4 5 5 3 5 4 6 11 15 17 17 20 23 23 22 22 21 21 20 18 18 18 12 10 10 11 10 9 8 8 7 6 4 2 2
3 1 5 6 7 6 3 4 3 7 9 4 2 3 7 3 7 6 10 9 7 11 14 18 18 20 24 24 24 23 23 23 23 22 22 16 15 12 10 11 10 10 9 9 7 5 4 3 3
4 2 5 3 4 6 5 2 3 5 8 9 3 4 2 3 8 9 12 11 11 12 17 17 19 20 23 25 25 25 25 25 25 25 23 19 18 15 13 12 12 11 11 9 7 6 5 4 4
2 2 4 7 3 3 8 3 1 5 10 15 10 15 18 17 18 18 17 14 15 16 18 19 21 21 23 25 25 26 26 26 27 27 26 24 23 18 17 15 14 14 13 11 10 9 8 7 6
3 3 4 7 9 7 18 14 14 9 17 20 19 20 22 19 18 19 19 18 18 19 20 22 22 24 23 25 27 28 28 28 29 30 29 29 25 22 20 18 17 16 15 14 13 11 10 9 8
5 4 7 14 21 12 10 16 15 16 9 21 22 28 27 17 18 21 25 21 20 20 21 24 25 25 26 26 26 28 30 32 32 31 30 29 25 25 23 22 21 20 18 17 16 14 13 11 10
7 15 16 18 17 9 5 14 16 23 25 26 28 29 29 26 25 24 25 27 21 21 26 26 24 28 28 28 29 30 30 31 34 33 33 31 27 27 27 25 23 22 21 20 18 17 16 13 12
7 13 19 19 15 17 17 18 13 33 30 29 30 26 24 22 21 23 22 22 25 24 23 29 29 26 29 30 31 32 33 31 30 32 33 32 31 29 29 27 25 25 24 23 21 20 17 16 14
12 14 16 20 25 27 16 16 11 28 26 27 27 25 21 21 22 21 19 22 24 24 25 24 32 30 28 30 32 33 33 32 32 30 30 32 34 32 30 28 28 28 26 26 23 21 19 18 16
10 6 10 17 20 10 9 7 10 24 21 14 17 19 23 20 26 26 25 25 25 25 25 24 28 31 29 28 30 32 33 32 33 33 30 31 33 33 31 31 31 29 28 27 26 25 23 22 20
7 6 5 6 10 5 8 8 10 17 18 22 29 32 28 29 29 23 16 7 5 9 19 20 20 27 30 28 28 31 31 32 33 34 34 34 34 33 33 33 33 32 31 29 28 28 26 24 23
7 5 10 11 15 5 6 5 9 20 26 28 37 32 26 25 12 7 4 7 10 9 6 9 17 20 25 28 26 28 29 31 31 33 34 36 35 34 35 35 35 34 34 33 31 30 28 27 26
7 11 11 13 8 7 7 9 9 20 24 28 29 29 22 11 16 9 9 10 10 12 14 14 4 13 17 19 24 26 26 27 29 31 32 34 36 34 35 36 37 37 37 35 34 32 31 30 28
5 8 11 10 9 12 14 15 9 17 29 29 27 27 7 24 15 13 11 11 5 1 3 9 15 11 13 17 18 21 24 22 25 26 26 29 33 34 33 36 39 40 41 38 35 34 34 33 31
10 11 12 8 7 8 10 16 19 19 22 27 14 24 25 19 17 18 18 19 21 19 13 7 4 8 8 10 9 12 12 15 18 20 25 27 29 33 33 33 37 40 40 39 38 38 38 36 36
11 11 10 8 7 6 9 7 8 9 5 25 27 27 24 21 19 19 23 25 25 27 25 18 12 6 3 6 11 12 15 15 15 14 18 22 25 30 33 33 34 39 41 40 40 40 40 41 40
9 8 2 5 4 3 7 5 6 15 4 14 21 23 19 16 15 19 22 25 27 25 23 21 18 14 10 6 3 3 6 8 7 6 14 16 20 25 30 32 33 35 40 41 41 42 42 42 43
4 3 3 5 4 5 7 5 5 7 10 9 14 19 16 15 17 19 20 23 24 25 25 25 22 20 15 11 8 4 2 4 7 10 10 13 16 18 19 24 28 31 36 39 41 43 45 46 46
3 4 9 7 5 2 3 4 4 4 8 6 13 16 15 15 15 17 18 19 22 22 23 23 23 22 21 19 15 10 6 4 1 5 8 10 12 13 14 16 23 27 29 34 38 41 44 45 47
2 3 4 1 1 5 7 4 4 3 10 13 15 19 15 13 14 15 16 17 17 17 18 19 20 21 20 18 16 17 15 11 9 6 6 8 9 11 15 15 15 19 24 29 34 37 41 44 47
4 1 3 5 3 4 6 5 5 7 20 24 22 19 14 13 13 14 14 15 16 16 15 13 13 14 17 16 16 16 14 14 13 13 11 9 10 13 15 15 19 17 17 20 26 34 37 41 45
4 2 3 2 3 2 5 5 7 14 11 15 18 17 14 10 9 8 8 9 10 12 13 14 14 13 12 12 13 15 17 18 17 15 15 15 13 11 11 16 19 20 21 20 21 27 33 38 41
2 4 1 1 3 4 6 4 7 7 10 10 11 15 10 7 6 5 4 4 6 8 8 11 12 14 15 16 14 12 12 14 16 17 19 20 18 17 17 17 15 16 19 22 22 24 27 32 38
2 2 4 1 3 3 8 6 7 6 6 11 11 9 6 4 2 3 4 7 11 10 10 12 15 18 19 19 17 16 16 15 14 15 17 20 22 24 24 21 19 19 17 18 21 24 25 28 32
6 9 7 7 6 4 11 15 5 7 9 13 8 6 3 2 2 4 4 3 4 8 12 15 16 17 19 21 21 22 21 21 21 21 19 19 19 21 25 26 26 25 22 20 20 22 23 27 31
Wind_Direction
306 330 348 310 260 205 281 79 5 27 45 40 346 354 301 278 281 331 156 219 192 216 196 193 197 200 203 202 203 204 205 206 203 210 212 223 223 220 213 165 201 207 244 278 313 338 347 46 85
311 338 328 279 251 271 71 88 75 52 18 322 270 266 249 354 79 348 296 176 189 226 205 198 198 203 205 205 205 205 210 212 207 208 208 223 225 224 223 202 207 233 248 260 279 292 279 280 230
7 26 284 290 283 11 13 90 79 65 124 254 300 210 290 6 80 186 263 265 201 208 210 207 206 205 206 208 208 209 210 215 219 225 232 241 242 243 236 223 216 239 260 256 267 269 272 275 268
68 252 243 267 307 17 10 354 31 326 109 146 329 294 182 246 251 258 285 284 210 207 213 213 211 213 212 211 212 215 216 218 223 230 240 228 244 241 230 226 231 242 257 259 262 270 272 265 260
1 271 275 227 258 95 356 2 34 309 304 168 157 300 324 224 318 278 286 276 224 215 210 218 219 216 217 217 216 217 222 225 225 223 220 231 240 234 220 224 233 243 247 252 258 261 263 259 251
268 250 277 264 0 3 63 56 0 271 298 102 259 262 265 239 269 340 339 305 236 231 222 224 225 221 221 219 220 223 224 223 224 224 229 242 250 244 227 230 235 238 240 246 252 258 254 224 177
255 298 262 308 303 295 120 85 284 353 319 316 154 294 286 211 260 281 318 301 260 234 234 235 230 226 224 225 224 225 223 224 226 226 234 239 254 258 241 236 237 239 241 242 237 223 207 198 194
309 315 281 276 286 322 106 93 288 313 311 318 245 253 44 288 275 281 300 283 265 239 250 237 237 230 227 227 228 227 225 225 226 227 233 234 244 252 240 234 234 235 237 239 236 225 218 215 218
295 293 274 284 307 270 130 167 259 267 269 280 263 266 277 283 294 289 286 276 257 251 246 249 238 234 230 231 230 228 226 223 224 229 232 236 241 247 240 234 232 230 230 228 224 218 215 219 225
234 238 261 321 338 327 325 335 327 318 291 285 289 286 278 261 286 288 283 279 267 256 248 249 244 240 236 232 233 231 229 225 225 229 232 235 238 242 238 234 233 230 228 226 223 218 219 221 225
210 227 284 308 318 340 332 304 296 288 277 273 291 305 305 289 294 288 286 281 266 273 264 253 246 241 237 236 233 233 230 231 230 230 233 238 234 237 236 235 232 229 227 226 223 219 223 227 229
253 253 274 290 291 305 283 292 302 285 268 272 282 288 292 291 285 275 280 285 279 249 261 266 255 243 238 235 233 236 238 234 236 233 234 238 238 235 236 235 233 232 230 227 223 222 225 224 227
259 257 263 288 294 285 285 274 284 282 277 276 280 290 285 290 285 282 286 268 270 270 252 256 262 253 244 238 237 235 242 245 240 239 237 236 239 238 237 236 235 234 231 230 228 224 225 225 227
296 328 309 286 277 273 267 269 288 280 282 280 279 279 287 285 289 288 278 279 267 272 276 252 252 257 250 243 241 242 243 245 249 245 243 238 240 241 240 235 238 236 234 233 233 229 229 230 232
330 323 286 273 267 246 209 297 234 276 301 301 285 289 288 287 298 299 294 288 289 285 281 275 248 254 251 246 245 242 245 243 244 252 248 243 241 242 240 236 237 239 238 235 232 230 229 231 233
276 252 281 265 268 152 129 271 284 300 332 320 304 291 292 298 307 308 300 279 258 281 273 277 270 249 254 249 244 245 241 244 243 246 248 246 245 245 242 238 237 239 240 239 235 233 232 233 233
234 261 271 284 277 130 162 245 274 287 283 284 281 284 293 301 341 62 281 274 267 256 241 283 277 268 254 254 249 247 246 242 243 244 247 249 249 245 245 243 240 240 241 240 238 236 236 238 236
280 297 311 310 315 307 261 248 252 275 294 281 281 293 299 60 58 28 343 316 286 250 233 221 240 262 266 259 253 246 248 245 243 244 246 250 253 250 246 243 242 240 240 239 238 236 234 235 237
314 309 298 298 307 299 285 289 308 293 276 286 292 292 325 72 56 45 41 34 28 318 232 226 218 218 242 250 249 240 235 241 241 241 244 246 254 256 250 246 243 242 241 241 240 238 233 232 230
297 286 284 279 284 325 320 300 290 276 270 269 289 72 74 66 55 53 57 60 57 60 64 70 132 198 232 229 235 237 241 247 255 256 250 247 251 257 257 250 246 246 246 241 237 236 232 230 232
272 271 291 313 343 303 300 282 268 280 346 79 70 74 67 60 53 50 53 57 61 59 57 62 70 109 196 206 225 233 226 227 227 240 252 255 248 252 259 257 251 250 250 247 246 242 238 235 233
277 261 320 301 335 236 45 282 327 281 77 81 77 73 69 66 67 60 54 55 54 55 58 58 63 70 84 109 150 208 198 224 226 255 276 276 263 259 261 262 259 254 255 252 248 247 244 240 238
262 10 280 254 244 307 233 249 245 235 107 103 91 88 78 72 64 60 58 55 55 54 51 52 53 55 56 64 69 85 149 234 219 218 244 265 277 279 270 265 263 258 255 256 253 250 247 244 242
11 296 269 257 218 284 238 212 304 92 156 123 110 102 96 80 71 63 55 50 49 45 43 42 44 48 48 48 47 44 33 16 322 219 257 275 282 289 289 273 261 259 257 258 258 256 253 250 249
85 329 308 276 119 212 51 3 258 348 171 153 132 111 95 84 65 52 42 34 29 30 27 25 21 23 28 28 38 42 44 36 32 13 320 304 290 299 305 297 279 270 264 261 262 260 258 255 252
175 338 191 265 320 308 2 236 246 84 85 102 108 105 87 67 51 40 29 26 21 21 22 24 22 16 12 9 16 16 16 24 30 29 20 353 315 291 278 279 288 289 278 267 262 262 262 261 257
141 191 75 39 234 212 232 276 289 116 105 112 109 98 89 73 56 43 28 27 31 20 12 15 20 23 22 13 9 6 4 4 7 10 8 3 356 339 312 280 281 282 283 278 271 265 262 262 263
189 111 42 174 260 240 261 281 265 94 138 124 109 106 110 117 110 103 78 27 34 35 23 13 14 21 23 23 23 23 14 3 1 2 357 350 344 340 338 337 321 303 292 287 277 271 267 265 263
156 195 210 253 203 252 274 257 96 86 109 129 128 131 142 144 111 72 55 34 360 6 15 12 7 5 7 10 8 8 8 7 2 6 352 344 341 339 339 336 330 325 314 296 287 282 275 267 266
275 266 266 247 254 243 257 258 26 109 119 130 142 170 192 177 318 13 27 49 18 6 3 358 359 358 356 353 351 351 354 353 356 358 350 339 332 330 330 331 331 331 322 311 303 288 283 277 272